Theta_e
315 315 315 315 315 316 316 316 316 315 315 316 318 320 321 322 324 326 331 334 332 331 331 331 332 333 333 334 339 345 341 343 347 350 349 349 349 350 350 349 350 348 349 347 346
317 317 316 316 316 316 316 317 316 316 316 316 317 319 321 322 324 329 331 334 333 332 332 331 334 333 332 332 336 342 340 341 343 346 348 349 348 350 351 350 349 348 348 347 346
321 320 320 318 317 317 317 317 317 317 316 316 316 318 320 323 326 330 332 333 335 335 332 332 332 333 332 331 331 342 341 342 345 346 348 349 350 348 349 350 348 347 347 347 347
323 323 322 321 320 318 317 317 317 318 317 316 316 317 319 322 328 328 331 333 334 333 331 331 331 332 330 329 332 343 343 343 347 348 349 350 348 347 347 346 346 345 344 346 347
323 323 324 324 323 321 320 318 317 318 318 317 316 316 318 321 328 329 330 334 333 332 330 330 331 332 330 329 329 343 346 344 342 345 347 348 348 347 347 346 346 346 347 346 347
321 322 323 324 324 323 322 321 318 318 318 318 317 316 318 318 326 329 330 330 333 332 331 330 331 331 330 326 327 342 348 343 343 342 348 348 348 347 345 346 346 347 347 347 347
319 320 321 322 323 324 324 322 321 318 318 319 318 317 317 323 326 328 330 329 328 331 330 330 330 329 329 326 341 343 343 339 339 340 346 348 347 347 345 344 348 348 347 346 346
318 318 319 320 322 323 324 324 321 318 318 318 318 318 317 319 324 328 329 329 328 328 329 328 327 328 328 325 325 339 337 339 337 341 344 347 350 342 346 345 349 349 348 347 346
317 318 318 319 320 322 323 324 320 317 317 318 318 318 317 316 320 327 329 330 328 328 328 327 327 327 325 322 321 324 332 337 337 341 344 347 348 344 346 344 346 348 348 348 347
316 316 317 318 319 320 323 324 319 316 316 317 317 320 320 323 321 324 328 330 328 327 328 328 326 320 317 320 325 327 324 326 330 334 343 347 349 344 345 344 343 344 345 347 347
315 315 316 317 318 319 322 323 321 324 317 318 320 319 324 324 325 321 328 328 324 325 324 324 323 323 322 321 322 323 324 325 326 327 339 344 346 344 345 345 344 342 342 343 344
314 315 315 316 317 319 321 323 323 324 324 324 323 321 323 324 324 325 326 324 324 322 322 320 322 322 322 322 323 323 324 324 325 327 336 344 347 345 343 345 345 343 341 341 341
314 314 314 315 318 320 322 324 326 326 324 325 324 323 324 324 324 325 323 323 322 322 322 321 323 323 323 324 324 322 323 324 324 328 343 341 342 338 342 345 346 344 342 342 343
314 314 314 315 320 324 328 326 326 328 318 321 323 324 324 326 325 327 323 324 322 321 320 321 322 324 324 323 322 323 323 324 324 325 325 341 337 326 332 340 343 345 344 344 343
314 314 314 317 325 328 327 328 326 325 325 325 323 325 324 325 324 326 326 324 321 322 322 324 325 324 324 324 322 324 324 323 325 324 324 325 326 324 337 334 338 342 344 345 344
317 316 317 319 325 326 328 328 326 320 329 326 325 325 325 325 324 321 324 324 323 322 323 322 323 323 322 323 323 324 323 320 319 320 322 322 325 325 327 331 336 342 343 345 345
325 324 322 321 325 327 328 327 320 325 325 326 325 324 323 323 324 324 320 321 321 324 323 322 323 323 325 325 323 320 319 323 324 321 322 319 326 324 325 325 331 338 343 344 345
328 328 325 326 327 328 328 322 327 328 328 326 324 322 324 322 322 321 321 318 319 319 319 323 324 323 323 323 325 322 320 322 326 323 322 319 324 323 325 332 336 334 339 343 344
328 330 327 327 327 328 329 323 323 326 327 329 325 325 325 326 327 324 322 326 321 319 321 321 323 323 323 323 325 324 320 319 317 315 319 318 319 322 327 331 336 337 338 340 343
329 332 331 328 327 329 323 323 326 325 327 326 328 327 328 327 329 325 326 325 327 326 321 322 322 322 324 324 323 322 318 320 314 322 322 319 322 323 323 328 330 335 337 339 340
332 331 329 326 328 330 321 321 325 328 324 327 326 326 325 328 328 327 324 326 323 327 324 324 319 322 324 324 324 318 318 313 314 314 318 319 320 318 326 326 325 328 334 337 339
330 326 329 328 326 320 324 325 325 320 323 323 324 325 326 323 328 327 324 322 323 328 328 327 320 323 325 322 321 320 320 313 317 319 314 315 319 319 324 327 329 332 335 337 337
329 329 330 329 319 317 318 319 321 319 318 321 320 320 320 321 325 324 322 322 322 326 325 328 324 328 327 324 326 328 328 315 312 312 316 319 322 319 321 324 329 331 333 339 338
325 321 326 328 321 319 320 319 320 321 319 319 319 318 318 319 318 322 321 321 320 322 326 327 323 328 329 325 327 331 332 329 322 325 321 318 324 323 323 323 325 330 331 336 340
322 317 318 318 318 318 316 317 320 319 318 319 319 319 319 319 318 320 319 317 319 321 322 317 320 327 326 326 326 329 332 332 329 326 328 328 321 324 322 322 328 330 331 334 337
319 318 320 319 318 317 315 320 320 319 319 319 320 319 318 319 320 320 318 317 318 318 319 316 317 323 321 319 323 328 327 330 330 330 323 323 324 322 338 336 332 332 332 334 335
316 319 320 317 315 317 317 320 320 318 319 320 319 318 319 320 319 320 320 319 317 317 317 315 316 318 319 319 320 320 319 321 324 328 328 329 327 337 338 336 335 336 336 336 335
Wind_Speed
5 4 4 4 4 5 4 4 4 2 2 3 4 4 3 3 5 6 9 6 7 2 3 6 7 10 11 3 1 2 3 2 3 3 3 3 3 1 4 12 4 6 4 4 20
6 5 5 4 5 5 5 4 4 3 3 3 4 4 4 4 6 9 5 10 10 6 5 5 9 11 5 2 2 3 3 4 3 2 2 2 4 6 4 4 2 4 4 13 23
7 6 6 5 5 5 5 5 4 4 3 3 4 4 4 4 6 1 6 10 12 9 6 4 7 8 5 6 2 2 3 1 3 5 5 3 5 4 10 3 9 14 17 26 24
7 7 6 6 6 5 5 5 4 4 3 3 4 5 4 2 3 2 5 6 8 8 5 4 7 8 3 4 8 4 3 2 3 2 1 3 5 4 11 6 7 14 20 25 25
7 7 7 7 6 6 6 5 5 4 4 4 4 5 4 5 5 4 3 6 8 7 4 3 6 5 4 6 10 1 2 2 3 5 5 4 3 4 11 11 10 17 24 23 22
8 8 7 7 7 7 6 6 5 5 4 4 5 5 6 4 6 7 3 5 8 7 3 2 3 8 3 3 1 4 4 3 3 4 3 4 2 2 6 12 16 20 26 24 22
9 8 8 8 7 7 7 6 5 5 4 4 5 6 10 12 7 6 8 4 4 9 5 4 5 4 7 7 3 2 4 6 4 3 3 4 6 9 8 13 21 22 24 24 22
10 10 9 9 8 7 7 6 5 4 5 5 5 6 8 6 15 10 11 7 7 6 7 7 5 8 2 5 5 3 3 5 3 3 3 6 9 5 12 18 22 23 24 24 24
12 11 10 9 8 7 7 5 4 4 5 6 5 5 7 5 16 15 13 7 6 4 4 6 6 3 1 3 5 6 3 3 7 10 3 5 8 2 17 21 23 26 27 27 26
12 11 11 10 8 6 6 5 4 4 5 6 8 4 5 2 3 17 16 12 6 4 3 2 2 2 4 5 3 4 5 5 8 3 4 5 19 7 12 23 27 29 30 30 27
13 12 11 10 8 5 4 3 2 3 10 8 1 3 2 3 1 11 20 15 8 1 0 4 4 5 8 6 5 3 4 6 18 8 6 11 15 18 11 20 17 26 31 32 33
14 12 11 9 8 5 5 3 1 2 8 13 21 22 21 13 5 4 22 12 4 4 2 6 6 10 2 3 4 4 5 9 12 6 8 3 13 11 9 12 26 27 29 32 28
14 11 10 9 6 5 4 3 2 7 2 6 6 12 15 9 8 8 20 14 4 5 4 6 8 4 3 2 4 4 5 5 7 6 1 3 7 7 2 10 17 29 29 30 27
14 11 8 6 2 5 9 2 4 3 4 5 2 1 9 6 3 11 16 16 2 10 7 6 6 7 3 5 6 6 6 5 7 1 4 4 6 5 4 7 7 18 26 27 28
14 9 5 4 4 7 2 3 4 1 3 3 2 5 11 7 2 6 18 17 9 6 7 9 3 5 3 6 6 9 4 5 4 3 2 2 2 8 4 8 8 15 26 30 29
9 5 2 4 8 5 3 3 4 5 2 4 4 4 5 1 2 5 4 4 5 4 3 7 1 5 7 5 6 4 4 3 3 3 3 3 3 9 3 6 5 5 23 31 32
8 5 2 6 10 5 4 4 5 4 3 6 2 3 2 2 1 2 6 6 6 2 3 6 7 6 6 5 1 4 5 4 5 5 6 3 1 9 10 9 7 8 17 30 34
7 8 4 8 6 6 3 5 3 1 3 4 4 3 4 1 3 5 4 5 2 5 3 1 9 2 1 7 5 5 7 5 4 3 6 2 4 6 6 15 10 9 9 18 34
5 7 8 5 4 5 2 3 3 3 3 6 5 6 6 5 3 3 4 5 3 6 7 3 7 4 6 5 6 2 4 4 5 3 1 3 8 10 3 8 1 5 11 21 28
3 6 7 4 4 3 4 3 3 5 4 0 1 2 2 5 3 5 3 4 6 2 4 3 5 5 9 3 1 5 6 2 3 2 3 5 5 6 10 11 3 6 14 19 24
2 4 6 9 5 1 3 5 4 6 4 2 1 3 2 2 2 2 2 2 5 7 3 0 3 7 2 3 6 2 1 6 4 4 5 2 6 7 7 10 11 9 12 19 24
3 3 5 5 3 2 1 3 5 4 9 6 5 4 2 2 2 2 2 2 14 4 3 3 3 3 8 4 3 2 3 5 5 4 1 3 6 4 7 9 13 19 10 9 20
3 4 5 2 2 3 6 3 3 8 6 6 5 5 3 2 2 2 1 1 12 5 2 3 1 4 9 5 5 6 3 4 5 2 5 5 6 4 9 11 21 18 21 6 9
2 2 2 2 4 3 3 3 3 6 5 6 3 5 5 5 5 2 2 1 7 3 6 3 2 6 6 5 1 4 3 2 2 2 5 5 7 8 10 10 19 29 26 15 9
5 2 2 2 3 3 1 3 3 5 5 11 4 4 1 1 4 1 2 5 4 1 2 4 3 4 6 6 4 7 8 7 6 6 5 6 8 9 9 9 21 28 25 20 16
5 4 3 3 3 1 4 3 2 4 3 3 2 3 1 4 2 3 2 3 6 1 2 2 3 1 7 9 11 12 12 9 11 12 7 7 9 5 15 16 19 22 19 22 24
11 7 3 5 3 2 0 2 3 2 4 5 2 2 2 1 9 15 16 16 10 5 3 5 5 2 5 4 4 7 10 15 10 7 9 8 8 4 7 11 17 22 27 28 30
Wind_Direction
1 1 356 347 342 343 340 336 327 301 254 240 234 241 259 274 274 257 234 201 226 260 350 358 359 350 333 323 248 181 68 257 231 182 267 153 132 84 101 135 149 198 233 249 167
352 350 346 340 332 332 331 332 327 309 280 256 247 249 262 280 283 271 217 204 224 252 302 335 354 353 351 307 180 129 109 233 218 206 235 182 162 149 135 140 96 168 198 172 168
346 343 339 333 326 321 321 321 321 315 296 269 253 248 260 295 307 158 184 203 215 237 259 325 355 358 342 344 323 174 210 276 293 255 274 197 137 185 153 189 198 177 163 169 174
340 337 332 328 325 317 312 309 307 306 293 272 255 249 251 260 175 136 182 194 202 215 232 331 359 359 30 0 358 320 297 171 283 312 159 182 160 190 191 211 212 190 171 174 185
339 333 326 323 323 317 309 302 297 291 284 271 258 248 244 241 244 180 124 189 192 209 237 340 23 352 19 327 329 232 260 302 306 304 290 207 205 221 230 236 201 183 180 182 189
339 331 324 320 317 315 310 303 291 281 272 266 260 252 239 247 230 238 259 211 219 226 254 330 347 326 328 307 125 320 286 275 255 285 257 220 214 222 262 212 188 188 189 194 198
336 330 324 317 312 311 306 301 293 275 254 252 256 254 246 239 221 213 213 208 226 245 259 312 318 320 328 327 337 333 312 331 258 232 244 216 280 236 230 190 183 189 195 199 202
333 329 323 317 311 306 302 301 300 265 242 243 257 267 254 234 225 197 189 204 204 221 239 281 324 296 279 317 338 347 46 353 280 155 233 146 274 298 204 185 191 193 202 210 212
330 326 319 313 310 307 301 297 288 249 231 235 253 255 263 243 214 208 200 193 189 201 251 285 327 280 45 57 359 9 303 293 314 210 125 180 270 274 192 195 196 202 207 211 217
327 322 317 312 310 303 290 285 274 248 230 236 242 286 244 113 189 205 198 200 213 279 281 185 152 53 45 70 257 320 325 298 263 287 223 208 259 236 200 199 201 209 213 215 218
325 320 314 308 306 295 272 263 263 270 229 217 227 214 202 9 14 198 199 204 234 235 183 26 52 244 251 194 201 238 242 261 290 255 241 223 250 265 199 218 218 211 215 218 221
323 317 310 304 303 281 243 211 208 324 300 266 249 254 252 257 318 182 197 191 156 198 94 16 267 249 189 191 211 222 280 284 282 289 182 149 250 269 203 217 219 219 214 220 220
322 314 307 303 297 256 216 173 279 307 280 288 250 247 248 234 219 204 188 188 141 164 188 177 236 105 161 268 299 247 213 274 244 337 275 3 285 260 278 230 229 229 221 219 216
322 313 302 300 270 149 135 49 302 190 55 280 274 269 163 146 233 206 191 185 168 196 152 243 258 233 236 249 163 298 182 251 276 156 247 139 287 280 296 281 227 219 215 214 210
323 313 286 231 152 139 97 36 122 138 62 326 130 145 163 174 120 196 193 193 180 183 134 240 221 197 196 226 159 238 328 299 308 194 359 307 59 272 342 293 256 220 212 212 209
344 333 282 195 166 145 74 120 135 43 21 8 129 146 123 274 11 112 172 210 220 151 271 245 283 173 218 269 179 262 308 37 51 83 7 268 140 287 253 239 287 235 211 212 213
12 33 88 145 148 144 132 155 42 105 322 327 25 134 125 172 149 115 158 167 172 147 284 330 261 243 200 300 62 97 58 334 346 2 227 275 76 240 275 271 248 228 213 213 211
40 43 75 141 133 142 147 48 87 279 285 327 15 80 100 60 53 6 48 4 336 84 109 193 315 183 88 183 190 190 155 164 237 235 264 293 254 264 228 298 323 244 226 206 211
39 54 64 133 135 165 151 70 219 212 282 327 346 67 6 8 107 96 89 350 303 178 197 191 264 266 196 174 139 238 208 188 112 5 40 268 297 302 294 312 82 251 182 197 210
34 72 61 116 131 134 78 227 237 212 302 107 82 68 114 331 52 55 40 300 322 301 217 249 280 240 279 190 163 177 163 59 14 197 230 294 283 239 308 313 326 235 222 212 208
101 90 52 116 131 43 138 227 278 313 348 219 84 89 89 359 45 82 357 207 357 318 64 257 147 286 19 206 216 70 293 51 121 139 170 205 266 217 260 286 297 276 249 234 216
83 66 128 147 38 40 141 206 329 327 12 34 78 72 121 42 60 84 122 315 349 325 1 351 135 282 243 282 297 172 127 133 129 229 220 161 269 244 278 287 299 297 296 257 228
67 94 158 166 89 346 320 323 28 11 23 17 47 37 24 72 138 133 87 298 7 39 34 327 348 354 336 352 12 51 347 118 113 90 200 146 258 290 322 332 341 323 321 282 214
54 59 81 153 80 120 14 349 354 36 47 55 59 58 53 27 12 141 334 297 333 0 25 139 140 187 207 229 206 292 321 326 129 158 173 228 285 312 309 311 317 321 325 277 215
40 60 49 322 11 30 65 346 4 10 26 39 46 60 114 73 3 345 294 322 291 293 45 99 249 227 246 252 268 249 259 237 221 233 198 244 216 256 274 292 298 308 314 292 247
54 23 11 17 334 63 6 21 32 331 33 2 73 315 44 127 164 272 343 242 239 303 82 13 257 208 274 267 249 253 254 231 235 241 246 252 265 222 297 309 300 317 317 296 271
33 14 7 1 7 85 331 304 1 331 67 65 349 126 149 218 298 280 266 254 243 204 219 185 179 118 261 315 325 296 239 234 232 198 195 203 225 357 307 311 303 316 319 305 293